Location: Larkspur
(54.4391°N, 113.7691°W)
Time: 13:57:27
(UTC+00:00)

Oscar 19 - Pass Details

Date: 04 December 2023
Orbit: 771 x 789 km, 98.9° (Epoch: 01 March)

Event Time Altitude Azimuth Distance (km) Brightness Sun altitude
Rises 12:31:13 0° 17° (NNE) 3,272 14.0 -25.7°
Reaches altitude 10° 12:33:33 10° 18° (NNE) 2,343 13.3 -25.4°
Maximum altitude 12:38:43 78° 105° (ESE) 805 10.7 -24.6°
Drops below altitude 10° 12:43:53 10° 193° (SSW) 2,338 13.0 -23.9°
Sets 12:46:12 0° 194° (SSW) 3,264 13.8 -23.5°
